Voltar ao catálogo

SATCOM C5

AtivoMilitarGEO
NORAD 13631·PAYLOAD·🇺🇸 United States

Lançado Oct 28, 1982 de Cape Canaveral Space Force Station

Loading…

TLE

AtualizadoSource: Space-Track

Época: Sep 14, 2026, 15:29 UTC

1 13631U 82105A   26257.64570469 -.00000113  00000-0  00000-0 0  9999
2 13631  11.9993 331.8829 0002062  73.6201  75.3530  1.00274131127272

Acompanhe SATCOM C5 em tempo real com AllMySat

Download on the App Store